EUTELSAT 33E

Last updated on Nov. 13, 2019, 4:20 a.m. UTC

1 33750U 09008B   19316.84837757  .00000170  00000-0  00000+0 0  9991
2 33750   0.0577   0.5939 0004177 226.0937 163.5663  1.00273878 39450
UTC
Height (km)
Latitude
Longitude
Inclination
Orbital Period
UTC large
Height (km)
Speed (km/s)
/
Latitude / Longitude
Inclination (degrees)
Orbital Period (minutes)
Azimuth
Elevation
Range (km)
Doppler Factor
iOS Compass Heading
iOS Angle

Next 30 passes for location: Hong Kong

Rise time Rise Azimuth (degrees) Set time Set Azimuth (degrees) Duration Max altitude (degrees)

No matching passes for this satellites